Regional Weather Roundup
Issued by NWS

Home | Current Version | Previous Version | Graphics & Text | Print | Product List | Glossary Off
Versions: 1 2 3 4 5 6 7 8 9 10 11 12 13 14 15 16 17 18 19 20 21 22 23 24 25 26 27 28 29 30 31 32 33 34 35 36 37 38 39 40 41 42 43 44 45 46 47 48 49 50

000
ASUS43 KTOP 242159
RWRKS

WEATHER ROUNDUP FOR KANSAS
NATIONAL WEATHER SERVICE GOODLAND KS
500 PM CDT SAT SEP 24 2016

NOTE:  "FAIR" INDICATES FEW OR NO CLOUDS BELOW 12,000 FEET WITH NO
SIGNIFICANT WEATHER AND/OR OBSTRUCTIONS TO VISIBILITY.

KSZ001>006-013>018-027>032-041>047-242300-
NORTHWEST KANSAS

CITY           SKY/WX    TMP DP  RH WIND       PRES   REMARKS
GOODLAND       SUNNY     75  32  20 VRB5      29.95S
HAYS           MOSUNNY   75  57  53 S8        29.90S
HILL CITY      SUNNY     78  49  35 CALM      29.91F
RUSSELL        CLOUDY    72  63  73 SE7       29.90S
$$

KSZ061>065-074>080-084>089-242300-
SOUTHWEST KANSAS

CITY           SKY/WX    TMP DP  RH WIND       PRES   REMARKS
DODGE CITY     PTSUNNY   79  65  62 E8        29.88F
ELKHART          N/A     81  41  24 N6          N/A
GARDEN CITY    SUNNY     79  45  29 CALM      29.90F
GREAT BEND     CLOUDY    73  63  68 SE12      29.91R
LIBERAL        PTSUNNY   84  54  34 W9        29.88F
$$

KSZ066>073-081>083-090>101-242300-
SOUTHEAST KANSAS

CITY           SKY/WX    TMP DP  RH WIND       PRES   REMARKS
CHANUTE        SUNNY     89  70  53 S18G26    29.91F
COFFEYVILLE    MOSUNNY   91  69  48 S15       29.90F HX  96
HUTCHINSON     LGT RAIN  70  66  87 S7        29.90F
MEDICINE LODGE   N/A     68  67  96 E9          N/A
NEWTON         CLOUDY   N/A N/A N/A N5        29.92S
PARSONS        MOSUNNY   89  69  51 S13G22    29.92F
WICHITA INTL   CLOUDY    82  71  69 S10       29.88F
WICHITA JABRA  CLOUDY    78  73  84 S8        29.90F
WICHITA MCCONL MOSUNNY   79  72  79 S8        29.90F
WINFIELD       CLOUDY    79  70  74 CALM      29.90R THUNDER
$$

KSZ007>012-019>026-033>040-048>060-102>105-242300-
NORTHEAST KANSAS

CITY           SKY/WX    TMP DP  RH WIND       PRES   REMARKS
CONCORDIA      LGT RAIN  71  71 100 SE10      29.93R
EMPORIA        MOSUNNY   84  69  60 S14       29.89S
LAWRENCE       PTSUNNY   89  70  53 SE21G26   29.90F
MANHATTAN      CLOUDY    72  70  93 NW5       29.92R
OLATHE IND     MOSUNNY   87  70  56 SE17      29.93F
OLATHE EXE     SUNNY     86  68  54 S15G23    29.94S
SALINA         LGT RAIN  73  69  87 S8        29.91F
TOPEKA BILLARD PTSUNNY   87  70  56 S10       29.90R
TOPEKA FORBES  MOSUNNY   87  70  56 S13G20    29.91R
$$




USA.gov is the U.S. government's official web portal to all federal, state and local government web resources and services.